Simultaneous Nadir Overpasses (SNOs) Predictions

Prediction of SNOs between METOP-A and NOAA-19 Satellite Orbit:

Table of predicted SNOs for the next 14.0 days since TLE Epoch: 11/14/2014
Index Date (METOP-A) Time (METOP-A) Lat,Lon (METOP-A) SZA (METOP-A ) Date (NOAA-19) Time (NOAA-19) Lat,Lon (NOAA-19) SZA (NOAA-19 ) Distance(km) Time Diff (sec)
1 11/20/2014 02:09:50 -74.43, -36.65 86.02 11/20/2014 02:08:39 -74.41, -36.61 86.05 3.27 71
2 11/20/2014 03:00:30 74.42, 130.64 93.97 11/20/2014 02:59:38 74.40, 130.67 93.96 2.21 52
3 11/20/2014 03:51:12 -74.42, -62.03 86.02 11/20/2014 03:50:42 -74.39, -62.09 86.04 2.95 30
4 11/20/2014 04:41:52 74.40, 105.25 93.97 11/20/2014 04:41:41 74.39, 105.19 93.96 2.18 11
5 11/20/2014 05:32:35 -74.35, -87.54 86.07 11/20/2014 05:32:44 -74.34, -87.44 86.09 3.63 9
6 11/20/2014 06:23:15 74.33, 79.74 93.92 11/20/2014 06:23:43 74.33, 79.84 93.92 3.07 28
7 11/20/2014 07:13:57 -74.33,-112.93 86.07 11/20/2014 07:14:47 -74.32,-112.92 86.08 1.16 50
8 11/20/2014 08:04:37 74.31, 54.35 93.92 11/20/2014 08:05:46 74.32, 54.36 93.92 0.35 69
9 11/20/2014 08:55:32 -73.68,-139.88 86.71 11/20/2014 08:56:38 -73.73,-136.92 86.66 92.80 66




NCC Satellite Simultaneous Nadir Overpasses (SNOs) Prediction Service
